Weather History for Adrian, MI

Change the Weather History Date:

Wednesday, May 29, 2013

  Actual Average Record
Temperature  
Mean Temperature 74 °F -  
Max Temperature 82 °F 74 °F 94 °F (1987)
Min Temperature 66 °F 49 °F 35 °F (1966)
Cooling Degree Days 8    
Growing Degree Days 24 (Base 50)    
Moisture  
Dew Point 63 °F    
Average Humidity 66    
Maximum Humidity 84    
Minimum Humidity 50    
Precipitation  
Precipitation 0.00 in - - ()
Sea Level Pressure  
Sea Level Pressure 29.95 in    
Wind  
Wind Speed 11 mph (WSW)    
Max Wind Speed 16 mph    
Max Gust Speed 26 mph    
Visibility 10 miles    
Events      
Averages and records for this station are not official NWS values.
T = Trace of Precipitation, MM = Missing Value Source: NWS Daily Summary

Daily Weather History Graph

Daily Weather History Graph

Search for Another Location

Airport:

Trip Planner

Search our weather history database for the weather conditions in past years. The results will help you decide how hot, cold, wet, or windy it might be!

Date:

Astronomy

May. 29, 2013 Rise Set
Actual Time 6:05 AM EDT 9:02 PM EDT
Civil Twilight 5:31 AM EDT 9:36 PM EDT
Nautical Twilight 4:49 AM EDT 10:18 PM EDT
Astronomical Twilight 4:00 AM EDT 11:08 PM EDT
Moon 12:22 AM EDT (5/29) 11:05 AM EDT (5/29)
Length of Visible Light 16h 04m
Length of Day
14h 57m
Waning Gibbous, 73% of the Moon is Illuminated
May 29
Waning Gibbous
May 31
Last Quarter
Jun 8
New
Jun 16
First Quarter
Jun 23
Full

Hourly Weather History & Observations

Time (EDT) Temp. Heat Index Dew Point Humidity Pressure Visibility Wind Dir Wind Speed Gust Speed Precip Events Conditions
12:53 AM 73.0 °F - 64.9 °F 76% 29.88 in 10.0 mi SW 16.1 mph - N/A   Mostly Cloudy
1:53 AM 73.0 °F - 64.0 °F 73% 29.86 in 10.0 mi WSW 13.8 mph 26.5 mph N/A   Clear
2:53 AM 70.0 °F - 61.0 °F 73% 29.88 in 10.0 mi West 8.1 mph - N/A   Clear
3:53 AM 68.0 °F - 61.0 °F 78% 29.88 in 10.0 mi WSW 8.1 mph - N/A   Clear
4:53 AM 66.9 °F - 62.1 °F 84% 29.90 in 10.0 mi WSW 5.8 mph - N/A   Clear
5:53 AM 68.0 °F - 62.1 °F 81% 29.90 in 10.0 mi WSW 6.9 mph - N/A   Clear
6:53 AM 69.1 °F - 62.1 °F 78% 29.91 in 10.0 mi SW 10.4 mph - N/A   Clear
7:53 AM 70.0 °F - 61.0 °F 73% 29.91 in 10.0 mi SW 13.8 mph - N/A   Clear
8:53 AM 73.0 °F - 61.0 °F 66% 29.94 in 10.0 mi WSW 10.4 mph 21.9 mph N/A   Clear
9:23 AM 73.4 °F - 62.6 °F 69% 29.95 in 9.0 mi WSW 12.7 mph 19.6 mph N/A   Partly Cloudy
9:53 AM 73.9 °F - 62.1 °F 66% 29.95 in 10.0 mi West 13.8 mph 20.7 mph N/A   Clear
10:53 AM 75.0 °F - 62.1 °F 64% 29.95 in 10.0 mi WSW 9.2 mph 18.4 mph N/A   Clear
11:53 AM 77.0 °F - 61.0 °F 58% 29.97 in 10.0 mi West 15.0 mph - N/A   Clear
12:53 PM 80.1 °F 81.2 °F 62.1 °F 54% 30.00 in 10.0 mi WSW 13.8 mph 21.9 mph N/A   Partly Cloudy
1:53 PM 80.1 °F 80.9 °F 60.1 °F 50% 30.00 in 10.0 mi West 15.0 mph 20.7 mph N/A   Mostly Cloudy
2:53 PM 81.0 °F 81.7 °F 61.0 °F 50% 30.00 in 10.0 mi WNW 13.8 mph 18.4 mph N/A   Mostly Cloudy
3:53 PM 81.0 °F 82.2 °F 63.0 °F 54% 30.00 in 10.0 mi WNW 10.4 mph - N/A   Mostly Cloudy
4:53 PM 80.1 °F 81.9 °F 64.9 °F 60% 29.99 in 10.0 mi NW 8.1 mph - N/A   Scattered Clouds
5:53 PM 81.0 °F 83.0 °F 66.0 °F 60% 29.99 in 10.0 mi NW 6.9 mph - N/A   Partly Cloudy
6:53 PM 81.0 °F 83.0 °F 66.0 °F 60% 29.99 in 10.0 mi Calm Calm - N/A   Clear
7:53 PM 80.1 °F 82.3 °F 66.9 °F 64% 29.97 in 10.0 mi SW 4.6 mph - N/A   Partly Cloudy
8:53 PM 75.9 °F - 63.0 °F 64% 29.98 in 10.0 mi SW 8.1 mph - N/A   Clear
9:53 PM 73.9 °F - 62.1 °F 66% 29.99 in 10.0 mi SW 4.6 mph - N/A   Clear
10:53 PM 72.0 °F - 62.1 °F 71% 30.01 in 10.0 mi WSW 3.5 mph - N/A   Clear
11:53 PM 71.1 °F - 61.0 °F 70% 30.01 in 10.0 mi WSW 3.5 mph - N/A   Clear